Wetbulb
53.98 53.85 54.09 54.33 54.37 54.38 54.50 54.45 54.42 54.28 54.32 54.46 54.53 54.14 54.28 54.22 53.13 46.19 43.96 50.11 51.43 53.28 50.29 42.19 40.93 40.50 40.47 38.34 39.54 37.28 28.56 24.01 26.14 28.35 30.16 35.33 34.29 38.20 40.08 38.49 39.87 41.75 41.46 44.83 47.08
53.51 53.65 53.71 53.71 53.62 53.80 54.01 54.03 53.96 54.13 54.20 54.16 53.97 53.97 53.79 53.56 46.19 42.49 51.07 53.75 52.52 52.75 43.38 39.63 37.48 39.21 35.41 35.87 37.22 32.95 25.75 25.27 30.75 32.32 31.90 33.98 34.41 35.91 35.90 36.06 36.57 38.55 42.69 44.29 45.26
53.22 53.08 53.10 53.07 53.33 53.54 53.68 53.57 53.92 54.11 54.11 53.90 53.55 53.48 53.00 50.30 38.53 40.70 53.59 52.98 52.07 49.45 44.46 42.79 41.01 38.92 34.19 35.39 34.05 32.88 27.05 30.37 32.38 34.81 35.05 33.78 33.20 36.18 34.07 32.28 36.00 36.60 40.07 42.05 43.12
52.80 52.75 52.55 52.75 53.11 53.36 53.37 53.39 53.89 54.04 53.60 53.23 53.30 52.82 52.38 44.88 26.93 42.28 52.65 53.03 53.02 47.46 43.26 40.39 37.73 33.01 31.16 29.65 34.05 29.01 32.02 32.52 33.96 34.55 32.79 31.41 33.81 32.18 33.24 34.67 37.90 38.26 39.29 40.48 40.90
52.67 52.26 52.24 52.52 52.85 53.11 53.20 53.60 53.82 53.38 53.32 52.73 52.89 52.15 43.69 33.38 34.12 45.69 51.39 49.14 45.43 43.53 40.26 38.20 34.65 32.96 30.08 31.31 32.19 29.80 31.17 33.11 33.76 33.59 33.15 34.02 32.02 32.04 32.33 35.78 36.79 37.61 38.44 38.95 40.16
52.50 52.00 52.07 52.39 52.69 52.85 53.17 53.82 53.31 52.10 53.54 52.15 51.45 50.94 37.94 28.64 43.10 46.33 45.18 44.08 42.87 41.02 39.08 38.10 35.83 36.15 32.25 31.00 29.77 31.61 31.55 31.68 33.24 33.11 33.40 31.48 31.50 31.54 33.42 35.53 34.86 35.79 36.31 37.77 39.63
52.04 51.89 52.01 52.30 52.39 52.55 53.33 52.79 51.65 52.13 52.23 51.23 51.83 46.60 36.24 32.85 43.97 45.16 44.19 41.68 41.50 40.68 37.48 39.10 38.84 35.37 33.93 30.07 34.33 33.04 28.58 30.62 31.18 31.92 30.43 32.30 26.98 27.61 33.48 34.73 33.32 34.12 35.58 36.87 39.36
51.83 51.82 51.96 52.07 52.07 52.54 52.49 51.19 50.33 51.39 51.21 52.17 51.90 41.82 30.16 42.57 43.27 43.19 42.26 40.18 41.25 41.13 40.08 40.27 39.68 36.01 33.29 34.34 32.07 29.01 27.86 22.79 29.09 30.50 31.50 29.74 22.71 30.72 32.97 31.91 32.03 32.90 32.80 33.87 36.71
51.68 51.78 51.86 51.73 51.78 51.94 50.70 49.62 48.20 49.41 49.69 51.99 41.79 36.74 29.24 43.82 37.39 40.14 39.83 38.05 38.75 38.97 39.24 41.67 38.41 33.42 32.99 28.39 24.73 26.22 20.40 22.13 25.03 31.29 30.21 28.54 25.23 30.63 33.37 31.88 31.17 32.70 34.27 35.53 36.03
51.57 51.60 51.57 51.64 51.68 50.49 50.19 47.61 46.11 44.50 41.99 44.79 40.58 30.99 34.29 32.81 37.24 39.33 39.98 39.25 36.49 35.86 33.78 33.37 32.07 29.10 28.73 25.68 15.66 19.98 20.99 22.92 22.21 27.36 29.01 26.64 26.37 31.05 33.00 32.90 32.44 33.51 34.59 35.40 34.25
51.26 51.37 51.24 51.46 50.30 48.94 42.89 35.48 32.98 31.44 34.29 30.34 30.48 30.67 33.58 37.69 39.11 36.99 38.30 35.53 34.51 30.86 25.45 29.07 25.63 22.55 25.57 27.77 27.48 25.36 22.96 21.91 24.94 28.96 26.89 25.65 25.83 28.37 31.97 32.55 32.23 33.30 33.88 34.39 33.09
51.04 51.12 51.05 51.11 48.45 47.36 39.89 34.76 33.75 34.74 29.21 33.41 34.13 34.59 36.81 37.01 30.51 33.58 37.71 29.88 29.06 24.60 26.89 26.18 22.34 27.51 29.38 28.72 26.12 24.78 22.21 22.17 26.15 28.42 27.22 25.69 24.73 28.48 30.54 31.14 32.59 32.97 33.33 33.99 33.77
50.78 50.90 50.72 50.41 48.40 41.33 36.96 36.31 41.04 38.72 28.73 30.70 33.45 33.75 34.38 32.90 28.48 30.19 33.44 30.07 26.56 24.64 24.74 22.02 25.19 29.12 27.29 25.59 24.37 23.78 22.60 23.00 23.16 26.85 28.10 25.34 22.41 25.22 28.97 30.68 32.42 33.82 34.60 34.94 33.90
50.61 50.67 50.45 48.96 40.08 37.41 34.77 39.00 39.96 37.22 19.25 27.14 28.64 30.87 33.26 31.59 27.14 34.72 34.36 29.99 27.74 23.87 24.61 23.38 27.60 26.47 25.25 23.77 24.98 17.29 27.10 25.82 24.68 22.62 17.43 25.77 14.09 22.56 25.09 25.43 26.03 27.67 30.55 32.23 33.67
50.48 50.50 49.92 46.78 36.27 34.04 37.46 38.51 38.81 33.50 11.13 28.14 28.11 35.07 32.58 29.41 28.71 29.52 34.24 30.27 24.98 24.79 21.55 20.94 24.15 23.91 19.52 24.21 25.68 18.48 26.11 24.64 24.19 21.85 21.81 21.75 17.77 21.10 23.67 19.98 21.64 23.80 26.08 28.93 30.80
50.39 50.20 48.52 41.36 36.71 36.37 37.88 36.93 33.10 19.35 11.93 24.08 27.32 26.26 26.02 28.00 27.46 28.95 28.80 31.30 29.88 24.80 25.81 23.59 28.60 26.03 24.67 27.38 26.92 27.20 23.09 23.14 24.14 22.75 13.98 20.73 19.48 15.94 16.51 18.86 20.49 21.96 24.02 26.11 28.63
50.30 49.15 44.62 41.09 35.38 37.39 36.86 30.66 20.64 12.86 24.63 21.56 21.81 25.40 23.85 23.60 24.86 25.49 23.65 22.68 20.98 12.10 16.31 20.40 23.16 26.38 28.31 21.21 27.21 22.48 17.10 5.98 7.71 10.95 12.51 23.81 20.74 16.09 18.80 20.40 20.97 20.35 22.04 25.34 28.65
49.63 45.47 43.52 40.87 37.50 36.32 30.78 25.67 13.59 8.45 9.69 24.32 24.43 23.55 19.72 22.86 23.38 22.75 21.08 18.48 24.03 23.05 16.42 9.72 9.62 22.23 26.45 22.00 19.96 19.24 18.44 11.23 2.25 8.81 11.89 20.95 15.06 17.68 20.43 21.74 21.35 21.84 30.22 28.65 28.94
45.63 37.33 37.42 37.78 37.76 32.81 28.72 15.45 13.62 12.81 22.54 22.20 21.99 13.70 14.16 21.01 20.87 20.36 18.27 18.10 23.10 25.95 14.74 11.05 8.89 25.31 25.65 28.50 22.97 16.82 13.33 18.81 12.04 15.16 11.95 17.52 15.63 22.78 19.01 17.01 17.35 18.28 30.63 30.02 32.02
36.16 33.85 33.64 36.10 33.77 30.10 24.01 18.99 12.48 23.70 25.55 22.28 12.68 15.60 10.90 14.42 17.03 17.48 17.94 21.86 23.33 26.67 26.74 18.07 9.73 22.78 25.66 26.22 25.71 20.90 21.19 9.77 14.07 4.48 4.51 12.85 7.87 5.83 9.73 11.77 12.98 17.09 31.97 34.32 36.28
32.57 28.86 34.10 34.35 31.35 26.68 18.44 9.66 17.59 25.13 26.14 19.64 12.57 14.29 14.36 14.99 17.87 15.46 18.86 23.87 24.85 24.64 25.42 24.13 14.94 16.69 23.27 20.26 17.77 16.44 13.24 15.02 13.68 14.42 6.07 4.45 5.06 13.35 10.80 11.53 11.42 19.20 31.04 32.08 34.04
29.95 24.39 34.16 32.52 25.20 4.24 13.61 13.06 26.85 25.36 26.96 26.11 24.10 21.29 13.27 14.73 12.34 17.33 19.34 21.64 26.73 25.69 21.87 25.16 15.26 9.28 8.54 21.32 26.13 21.68 14.07 13.20 0.90 3.85 8.32 10.18 7.61 15.65 13.23 12.53 14.78 18.21 27.81 31.02 32.07
25.17 26.67 33.29 32.98 19.36 11.82 14.56 22.29 25.75 24.82 24.86 25.32 23.76 24.41 16.93 12.71 9.48 15.19 20.66 25.62 26.88 25.09 24.52 21.98 17.27 5.71 11.00 19.50 23.10 18.68 16.65 13.83 13.47 12.10 5.71 2.84 5.86 15.78 12.93 11.61 13.17 15.09 23.41 27.65 29.92
27.64 24.84 26.95 26.12 24.49 21.73 17.72 16.72 16.74 26.24 25.27 26.76 25.91 25.21 14.81 9.93 17.75 13.06 20.45 25.28 26.43 27.09 30.23 24.41 15.97 15.91 12.01 15.67 18.77 15.27 15.50 14.59 10.42 0.19 5.20 5.91 5.57 8.76 8.66 8.44 10.00 13.32 19.23 23.78 25.63
26.60 19.94 18.45 20.02 21.96 23.95 22.35 21.70 20.03 18.07 25.02 26.45 23.20 17.67 15.91 9.13 8.07 7.40 18.91 22.76 25.63 27.80 24.03 21.87 9.61 10.14 13.53 15.25 20.77 18.36 15.55 13.72 8.41 9.13 5.17 7.25 5.82 8.26 8.66 8.28 9.51 12.31 16.47 19.29 21.30
27.51 25.23 21.70 17.19 23.76 24.50 25.42 21.24 22.74 23.16 22.88 19.67 15.06 15.83 16.09 12.74 16.41 11.14 20.25 21.04 20.74 23.91 22.72 21.45 11.16 9.62 7.85 10.69 15.05 16.51 17.28 16.20 12.59 10.08 10.59 9.75 8.42 13.36 12.15 10.98 8.98 9.94 12.77 14.55 16.94
30.18 29.57 29.75 24.76 23.91 21.56 22.34 23.44 23.69 24.07 24.21 25.42 23.44 20.33 14.57 18.61 22.23 22.65 23.52 23.68 22.72 22.47 22.31 20.28 16.54 12.50 8.28 15.71 14.98 14.32 16.64 15.62 14.35 12.30 9.16 3.10 8.99 13.25 10.12 8.57 7.95 8.66 10.89 11.03 13.84
MSLP
1021.46 1021.08 1020.86 1020.97 1020.99 1020.44 1019.97 1019.54 1019.32 1019.00 1018.74 1018.39 1018.02 1017.80 1017.50 1017.26 1016.88 1016.56 1016.72 1016.77 1016.60 1016.34 1016.20 1016.27 1016.25 1016.50 1016.51 1016.75 1016.87 1017.21 1017.69 1017.16 1016.27 1015.81 1014.83 1014.55 1014.41 1013.80 1013.47 1013.11 1012.50 1011.83 1011.50 1011.05 1010.54
1021.45 1021.10 1021.05 1020.89 1020.86 1020.37 1019.94 1019.46 1019.09 1018.82 1018.57 1018.20 1017.88 1017.51 1017.21 1017.21 1017.33 1016.65 1016.44 1016.34 1016.16 1016.12 1016.40 1016.76 1016.94 1016.99 1017.09 1017.05 1017.05 1017.38 1017.69 1016.81 1016.01 1015.64 1015.30 1015.02 1014.86 1014.57 1014.11 1013.49 1012.75 1011.92 1011.20 1010.81 1010.47
1021.74 1021.23 1021.01 1020.83 1020.81 1020.18 1019.77 1019.41 1018.99 1018.52 1018.25 1018.02 1017.61 1017.37 1017.36 1017.50 1017.53 1016.82 1016.33 1016.22 1016.20 1016.40 1016.62 1016.93 1017.18 1017.46 1017.68 1017.47 1017.24 1016.99 1016.80 1016.40 1015.92 1015.67 1015.50 1015.37 1015.03 1014.61 1014.06 1012.97 1012.49 1011.95 1011.27 1011.02 1010.90
1021.65 1021.25 1021.06 1020.75 1020.48 1019.99 1019.55 1019.12 1018.66 1018.30 1017.89 1017.66 1017.38 1017.24 1017.20 1017.49 1017.44 1016.67 1016.49 1016.32 1016.29 1016.51 1016.70 1016.97 1017.41 1017.88 1018.06 1017.83 1017.24 1017.28 1016.58 1016.43 1016.04 1015.58 1015.57 1015.44 1014.80 1014.44 1013.92 1011.87 1012.56 1012.18 1011.66 1011.30 1011.16
1021.65 1021.31 1020.87 1020.73 1020.13 1019.73 1019.30 1018.82 1018.29 1017.98 1017.65 1017.30 1017.23 1017.29 1017.46 1017.17 1017.08 1016.71 1016.51 1016.57 1016.53 1016.61 1016.86 1017.08 1017.45 1017.72 1017.97 1017.67 1017.43 1017.02 1016.39 1016.27 1015.93 1015.76 1015.40 1015.14 1014.39 1014.37 1011.88 1012.81 1012.49 1011.90 1011.52 1011.11 1010.95
1021.77 1021.30 1020.87 1020.68 1020.00 1019.58 1018.98 1018.43 1017.99 1017.69 1017.25 1017.19 1017.25 1017.36 1017.42 1017.17 1016.86 1016.72 1016.83 1016.69 1016.52 1016.71 1016.82 1017.07 1017.10 1017.20 1017.42 1017.32 1017.47 1016.43 1016.47 1016.30 1015.84 1015.15 1015.00 1014.67 1012.77 1013.91 1011.54 1011.96 1011.53 1011.49 1010.93 1010.74 1010.51
1021.64 1021.23 1020.98 1020.57 1019.91 1019.30 1018.68 1018.13 1017.73 1017.35 1017.17 1017.10 1017.26 1017.69 1017.55 1017.34 1016.81 1016.76 1016.81 1016.55 1016.35 1016.47 1016.65 1016.54 1016.66 1017.13 1017.07 1017.11 1016.75 1016.75 1016.60 1016.01 1015.37 1014.42 1014.72 1013.96 1012.52 1012.77 1011.39 1011.42 1011.16 1010.75 1010.32 1010.29 1009.88
1021.57 1021.23 1020.90 1020.33 1019.85 1019.12 1018.45 1017.86 1017.52 1017.30 1017.20 1017.34 1017.24 1017.84 1017.44 1016.88 1016.85 1016.87 1016.56 1016.40 1016.20 1016.08 1016.24 1016.05 1016.33 1016.73 1016.88 1016.78 1016.78 1016.82 1016.56 1015.71 1014.55 1014.14 1014.14 1014.09 1011.59 1011.81 1011.43 1011.21 1010.66 1010.29 1010.08 1009.99 1009.43
1021.55 1021.24 1020.77 1020.18 1019.74 1018.98 1018.27 1017.65 1017.52 1017.34 1017.20 1017.29 1017.75 1017.90 1017.48 1016.83 1017.14 1017.25 1017.11 1016.78 1016.35 1015.97 1015.96 1016.03 1016.40 1016.83 1016.99 1017.14 1017.12 1016.62 1016.07 1015.43 1014.31 1013.43 1013.55 1013.58 1011.52 1011.21 1010.78 1010.66 1010.19 1009.93 1009.54 1009.41 1008.98
1021.57 1021.25 1020.61 1020.10 1019.61 1018.99 1018.09 1017.66 1017.57 1017.58 1017.68 1017.65 1018.00 1018.47 1017.66 1017.96 1017.78 1017.49 1016.99 1016.77 1016.64 1016.31 1016.14 1016.36 1016.80 1016.98 1017.15 1017.28 1016.90 1016.30 1015.87 1015.08 1014.07 1013.11 1013.13 1012.46 1011.24 1010.51 1010.11 1009.79 1009.23 1009.09 1008.98 1008.88 1008.67
1021.60 1021.31 1020.63 1020.20 1019.64 1019.19 1018.38 1018.13 1018.79 1018.92 1019.07 1019.69 1019.91 1019.56 1019.02 1018.47 1017.79 1017.67 1017.27 1016.94 1016.87 1016.95 1017.06 1016.99 1017.27 1016.96 1016.71 1016.76 1016.52 1016.06 1015.60 1014.47 1012.81 1012.66 1012.45 1011.46 1010.56 1009.28 1008.95 1008.90 1008.66 1008.40 1008.31 1008.21 1007.94
1021.58 1021.23 1020.71 1020.33 1020.06 1019.53 1019.57 1020.49 1021.84 1022.51 1021.25 1020.27 1020.09 1019.85 1019.26 1019.14 1018.75 1018.23 1017.87 1017.81 1017.67 1017.70 1017.52 1017.54 1017.07 1016.64 1016.60 1016.44 1016.28 1015.71 1015.00 1013.57 1012.48 1011.78 1011.97 1010.88 1009.30 1008.74 1008.26 1007.93 1007.63 1007.87 1007.88 1007.87 1007.94
1021.47 1021.17 1020.75 1020.30 1019.99 1020.34 1021.12 1021.88 1021.98 1022.14 1022.08 1020.46 1019.96 1019.69 1019.47 1019.36 1019.28 1019.04 1018.84 1018.43 1018.28 1018.24 1017.95 1018.01 1017.10 1016.79 1016.64 1016.35 1016.03 1015.08 1014.49 1013.30 1012.31 1011.59 1011.19 1010.62 1009.38 1008.72 1008.10 1008.03 1007.72 1008.09 1008.16 1007.90 1007.62
1021.53 1021.24 1020.70 1020.17 1020.36 1021.25 1021.67 1022.00 1021.91 1021.86 1022.25 1021.30 1020.04 1019.71 1019.60 1019.54 1019.74 1019.49 1019.18 1019.36 1018.71 1018.69 1018.31 1018.04 1017.38 1017.15 1016.59 1016.42 1016.33 1015.27 1013.37 1013.06 1012.34 1012.07 1011.13 1010.93 1010.56 1009.55 1009.71 1009.56 1009.67 1009.85 1009.34 1008.72 1007.93
1021.56 1021.41 1020.99 1020.43 1021.32 1021.93 1022.13 1021.75 1021.67 1021.94 1022.50 1021.33 1020.46 1019.99 1020.38 1020.66 1021.22 1019.74 1019.92 1019.39 1019.34 1019.25 1019.60 1018.70 1017.80 1017.30 1017.05 1016.74 1016.08 1015.11 1013.87 1012.78 1012.01 1011.55 1011.41 1010.73 1011.62 1010.65 1010.89 1010.94 1011.02 1010.51 1009.92 1009.23 1008.40
1021.55 1021.30 1021.06 1021.22 1021.71 1022.08 1021.73 1021.50 1021.89 1022.64 1023.53 1022.27 1021.76 1021.50 1021.72 1021.61 1021.74 1021.47 1020.94 1020.44 1019.85 1019.76 1019.67 1019.13 1018.03 1017.76 1017.43 1016.59 1015.86 1015.42 1013.94 1011.85 1011.17 1011.31 1011.39 1010.77 1011.46 1012.50 1013.53 1014.04 1012.24 1011.64 1010.35 1009.41 1008.37
1021.52 1021.23 1021.08 1021.27 1021.98 1021.91 1021.81 1022.07 1022.93 1024.62 1024.51 1023.94 1023.83 1023.68 1023.75 1023.26 1022.77 1022.71 1022.41 1022.08 1021.79 1021.26 1020.74 1019.96 1018.77 1018.08 1017.51 1016.85 1015.59 1015.67 1014.94 1013.91 1012.86 1012.20 1011.82 1011.49 1012.05 1013.79 1014.67 1014.60 1014.40 1012.30 1009.84 1008.43 1007.87
1021.36 1021.28 1021.38 1021.49 1021.77 1021.74 1021.93 1022.45 1025.23 1027.07 1026.86 1025.94 1025.62 1025.20 1025.15 1024.81 1024.09 1023.92 1023.71 1023.46 1022.97 1023.16 1022.59 1022.08 1019.86 1018.96 1018.08 1018.13 1017.67 1017.02 1016.97 1016.71 1016.01 1014.21 1013.14 1012.17 1013.53 1014.13 1015.08 1015.31 1014.69 1011.73 1007.79 1007.57 1007.72
1021.17 1021.62 1021.73 1021.68 1021.61 1021.78 1022.35 1024.45 1027.07 1027.45 1027.45 1027.48 1026.85 1026.97 1026.76 1026.18 1026.12 1025.28 1024.90 1024.37 1023.87 1023.68 1023.82 1023.01 1021.41 1019.44 1018.71 1018.53 1018.49 1017.93 1017.68 1018.18 1017.42 1015.81 1015.11 1014.38 1015.26 1014.56 1015.95 1014.47 1013.48 1012.34 1008.79 1007.78 1007.73
1021.82 1022.12 1022.03 1021.56 1021.53 1022.03 1023.33 1026.90 1027.71 1027.37 1027.35 1028.01 1028.66 1028.81 1029.03 1028.02 1027.42 1026.43 1025.55 1024.61 1024.27 1024.10 1024.17 1023.77 1022.55 1020.15 1019.26 1019.24 1019.39 1019.20 1019.29 1018.88 1018.31 1017.72 1016.81 1016.90 1018.75 1020.62 1019.37 1018.67 1016.54 1013.88 1011.13 1009.71 1008.89
1022.04 1022.32 1021.80 1021.63 1021.65 1022.77 1026.28 1027.57 1027.44 1027.19 1027.39 1028.26 1028.86 1029.26 1029.55 1029.46 1028.66 1027.80 1026.43 1024.83 1024.52 1024.21 1024.00 1023.80 1023.71 1021.07 1020.22 1020.73 1020.44 1019.71 1020.26 1020.27 1020.26 1019.61 1019.64 1020.10 1022.01 1023.43 1023.09 1022.02 1019.82 1016.52 1013.81 1012.22 1011.26
1022.42 1022.97 1021.92 1021.69 1023.01 1026.11 1027.72 1027.34 1027.25 1026.87 1027.04 1027.77 1028.31 1029.05 1029.74 1029.83 1029.50 1028.49 1026.82 1025.30 1024.59 1024.38 1024.07 1023.83 1023.69 1023.09 1022.04 1021.53 1021.25 1022.08 1022.32 1021.92 1022.01 1022.11 1022.13 1022.31 1023.64 1024.18 1024.43 1023.60 1021.80 1018.91 1016.16 1014.73 1013.76
1023.12 1023.10 1022.10 1021.70 1024.64 1027.14 1027.96 1027.49 1027.14 1026.71 1026.98 1027.50 1028.00 1028.67 1029.98 1030.31 1029.98 1028.87 1027.01 1025.19 1024.84 1024.55 1024.38 1024.38 1024.30 1024.46 1022.42 1022.04 1021.98 1021.95 1022.90 1022.86 1022.77 1023.65 1024.51 1024.71 1025.09 1025.36 1025.35 1024.32 1022.81 1021.15 1018.90 1017.37 1016.08
1023.34 1024.18 1023.85 1024.54 1026.31 1026.36 1027.46 1027.51 1027.30 1026.63 1026.80 1027.29 1027.81 1028.58 1029.91 1030.28 1030.00 1029.14 1027.51 1025.64 1025.05 1024.81 1024.39 1024.57 1025.37 1025.76 1025.73 1025.14 1024.63 1023.82 1024.01 1024.34 1024.55 1025.64 1026.36 1027.27 1027.60 1026.78 1026.61 1026.17 1024.90 1023.32 1021.71 1020.02 1018.73
1023.95 1025.59 1026.34 1026.45 1026.78 1026.66 1026.67 1026.70 1026.82 1026.50 1026.69 1026.96 1027.88 1028.71 1029.71 1030.41 1030.06 1029.47 1027.87 1026.14 1025.26 1025.09 1024.96 1025.24 1026.07 1025.94 1025.59 1025.47 1025.09 1025.38 1025.22 1025.81 1026.17 1027.21 1028.07 1028.42 1028.65 1028.79 1028.94 1028.57 1027.64 1026.40 1024.33 1022.63 1020.96
1023.48 1024.79 1026.43 1026.53 1026.66 1026.35 1026.32 1026.29 1026.14 1025.94 1026.17 1026.90 1027.77 1028.40 1029.17 1029.60 1029.00 1028.93 1028.35 1027.35 1026.95 1025.81 1025.63 1026.05 1026.31 1026.50 1026.16 1025.71 1025.28 1025.38 1025.75 1026.57 1027.35 1028.25 1028.77 1028.83 1029.24 1029.66 1030.12 1029.50 1028.97 1027.63 1026.53 1025.14 1023.68
1023.19 1023.56 1023.94 1026.08 1026.21 1026.31 1025.56 1025.37 1025.58 1025.72 1025.88 1025.99 1026.78 1028.00 1028.79 1028.63 1028.19 1027.92 1027.86 1027.67 1027.54 1027.44 1026.66 1026.55 1026.82 1026.92 1026.54 1025.42 1024.92 1024.96 1026.43 1027.42 1028.36 1029.31 1029.89 1030.15 1030.70 1030.55 1030.50 1030.71 1030.42 1029.99 1028.75 1027.21 1026.27
Wind_Speed
8 10 10 11 13 14 14 15 15 15 15 14 14 15 14 13 13 2 3 2 3 9 6 5 6 7 4 3 2 2 1 5 5 4 5 2 5 4 2 5 3 4 8 8 11
9 10 11 13 13 14 15 16 15 15 15 14 14 14 12 11 2 4 4 2 4 7 4 6 6 8 5 3 2 3 3 8 6 3 4 4 3 2 5 9 7 15 6 6 13
9 10 12 13 15 16 16 17 15 15 15 14 12 11 10 4 1 2 5 3 5 6 1 0 1 1 2 2 3 4 6 4 4 5 3 3 6 4 5 15 12 12 8 14 13
10 11 13 14 16 17 18 17 16 16 19 15 10 9 7 1 1 3 3 5 7 5 3 1 1 3 3 5 3 4 7 6 4 2 3 5 4 5 10 22 6 12 16 10 10
11 12 14 15 17 18 19 18 17 19 18 9 7 5 1 2 1 1 6 7 6 2 2 2 3 3 3 4 3 8 8 8 9 9 6 9 17 15 24 8 11 16 17 16 13
12 13 15 17 18 20 20 18 17 18 11 3 3 2 1 3 1 3 6 7 3 1 3 4 5 5 6 6 7 4 3 6 7 15 11 16 24 6 10 9 15 14 18 13 12
12 14 16 18 20 21 21 19 19 10 1 3 3 3 2 3 1 6 4 3 2 3 4 5 4 5 3 5 7 6 10 10 15 18 9 9 10 10 19 12 16 16 14 8 11
12 15 16 18 20 21 21 21 8 2 3 4 5 1 2 1 1 6 4 6 5 5 4 6 4 5 4 4 4 6 4 5 3 4 8 7 20 15 9 10 14 12 9 9 11
13 15 17 19 20 18 22 13 5 4 3 4 4 2 2 4 5 7 3 5 7 3 3 1 4 4 1 2 3 4 6 8 15 8 8 8 16 4 7 6 10 9 11 9 11
13 15 17 19 19 16 22 2 7 3 5 2 2 3 4 5 6 7 5 4 4 6 5 2 3 1 0 2 5 10 16 15 18 4 12 19 24 20 17 17 16 15 15 15 10
13 16 18 19 13 15 10 4 9 6 10 3 1 2 6 8 4 5 5 9 3 2 2 2 2 5 7 7 13 13 13 19 24 18 14 18 20 23 20 20 22 19 17 14 12
12 15 18 18 8 12 5 8 4 3 5 1 3 5 6 2 5 6 9 8 5 4 3 2 5 2 5 8 11 14 16 20 17 4 10 13 21 21 18 17 21 17 15 14 9
12 15 17 18 4 7 7 5 3 4 1 5 2 3 6 1 3 9 8 6 3 5 6 4 5 8 9 11 10 16 12 15 18 17 10 11 12 4 7 6 9 7 9 11 11
12 14 16 16 5 1 4 4 2 3 6 7 5 4 8 2 2 4 5 2 4 5 6 5 3 10 12 5 8 8 5 13 19 15 3 7 7 4 8 11 15 15 13 12 10
10 13 13 11 1 4 4 3 0 3 7 9 6 2 7 8 6 3 6 6 5 8 5 6 7 9 4 11 13 12 17 21 19 16 11 3 4 4 8 16 23 21 18 15 14
10 12 7 4 3 1 3 3 4 10 6 7 5 9 9 6 5 8 7 6 4 5 2 6 6 0 3 12 12 14 11 20 2 4 2 1 7 3 10 17 24 19 20 19 16
10 10 3 2 1 2 2 3 9 10 5 11 6 8 6 7 6 7 6 7 10 10 13 9 4 5 4 12 8 21 16 6 6 3 2 5 4 7 18 23 20 25 26 21 14
11 4 3 3 2 2 3 7 12 4 6 4 7 9 6 8 3 8 8 7 5 4 5 5 10 7 6 2 9 13 8 5 5 4 6 10 4 2 26 23 19 27 18 10 8
6 3 1 2 1 2 6 9 8 7 3 8 6 6 7 6 1 9 6 6 4 8 5 6 7 5 6 3 8 10 12 10 5 5 3 3 8 2 32 35 37 35 15 9 9
2 3 3 6 1 4 8 3 3 2 1 3 3 3 4 7 9 9 6 3 8 7 5 4 8 3 5 6 4 10 12 5 4 6 5 5 7 10 29 29 35 32 20 19 19
4 4 3 4 3 7 5 6 4 4 3 4 3 3 4 4 2 4 6 6 4 7 5 3 3 9 5 7 16 14 10 4 3 4 3 5 2 10 18 22 26 25 20 19 17
2 3 2 1 6 1 3 7 5 1 3 2 3 3 4 1 3 3 5 5 5 6 7 3 2 5 7 5 16 17 12 6 4 7 3 4 2 15 18 21 20 23 21 19 17
3 3 2 4 3 2 4 1 2 2 2 4 3 4 2 2 3 3 4 5 7 7 11 5 4 6 10 2 3 10 22 16 2 4 12 4 6 16 20 21 24 23 21 18 17
3 3 6 6 1 6 3 1 3 0 1 2 1 2 3 3 1 5 4 4 7 5 9 3 2 2 2 6 4 17 21 20 11 4 5 5 11 21 23 24 25 25 21 18 17
4 2 3 2 3 3 2 4 0 2 2 3 1 2 3 2 4 3 4 6 3 10 6 4 2 2 4 3 1 13 15 19 17 10 6 8 8 16 17 18 18 17 19 19 21
5 5 1 2 2 3 1 3 2 2 6 3 5 3 4 5 7 4 2 3 3 8 7 4 3 3 5 2 2 8 18 15 13 11 5 9 5 14 13 14 20 19 18 19 20
1 2 4 0 3 3 4 5 4 2 2 4 4 4 1 7 6 6 4 5 4 5 5 7 3 5 6 9 4 9 17 11 7 12 3 7 6 10 12 14 16 16 16 19 20
Wind_Direction
30 24 11 357 347 341 341 338 333 330 328 330 330 330 330 330 328 25 67 197 352 345 11 341 18 352 18 344 5 117 31 242 249 192 258 0 8 307 309 251 304 278 301 280 315
25 19 3 353 341 340 338 336 331 330 329 326 326 326 325 329 320 65 197 272 336 9 22 22 345 353 342 313 271 158 193 225 215 214 250 306 285 277 305 284 275 290 265 296 319
11 8 358 350 341 341 337 336 331 328 324 318 319 324 323 348 131 242 228 275 333 58 90 155 269 285 257 290 230 211 222 217 233 235 273 271 279 228 229 264 248 274 280 320 312
6 2 355 348 342 340 335 331 327 323 318 308 310 312 325 152 157 254 276 293 345 6 1 337 28 335 252 241 253 286 252 236 257 211 312 255 244 245 232 254 294 277 280 272 287
0 356 354 343 342 337 333 331 329 325 317 302 303 333 350 72 203 314 336 348 331 353 231 219 238 214 239 245 299 249 255 268 284 281 261 265 260 259 255 261 251 259 265 261 264
354 354 351 341 342 337 331 329 328 326 314 308 314 64 52 85 13 355 2 322 249 201 241 180 218 212 248 227 203 239 243 270 276 273 266 266 262 204 272 228 253 247 259 254 240
354 351 347 344 341 337 327 328 330 321 356 88 84 51 50 157 357 329 314 255 232 200 247 213 212 177 190 273 261 289 289 274 264 262 264 255 270 227 252 259 260 260 259 251 245
353 349 345 345 340 335 322 331 325 9 71 85 77 52 140 271 13 325 316 313 296 244 223 256 195 207 188 292 310 271 241 299 282 194 241 178 272 270 260 250 254 255 253 244 253
351 345 346 347 341 336 321 338 2 61 85 101 42 43 70 339 12 311 321 301 310 280 249 200 120 197 35 264 291 215 273 266 297 240 239 199 286 269 274 235 254 259 262 266 262
349 345 348 347 345 339 329 339 39 37 14 59 98 50 5 315 300 311 295 304 287 322 359 96 56 286 240 147 276 290 288 283 281 245 292 273 270 272 254 248 252 259 270 272 245
348 344 349 348 358 353 350 17 18 351 36 77 291 278 301 314 301 334 342 334 334 334 331 349 279 247 270 237 265 278 275 277 279 286 282 269 269 267 261 250 256 259 258 256 242
346 346 348 347 36 14 14 72 100 215 326 339 282 279 255 311 314 335 9 10 359 300 326 324 254 290 286 296 299 291 280 277 280 248 301 282 273 278 272 255 249 247 255 257 260
345 347 346 344 139 47 68 61 323 155 18 311 275 302 297 1 325 312 13 329 286 308 320 259 276 312 328 322 332 316 275 275 284 318 252 276 283 282 303 333 300 287 285 263 241
343 345 349 341 52 290 59 332 356 114 73 318 329 355 343 333 42 297 358 327 326 306 325 275 321 334 327 295 340 298 240 302 293 306 273 62 290 10 13 18 6 345 332 333 312
339 344 354 28 178 50 305 340 149 67 44 317 330 349 336 64 306 315 336 347 301 304 66 275 326 340 323 327 324 255 300 291 284 273 281 247 227 20 14 347 340 331 320 314 310
334 344 356 35 50 195 302 96 68 42 303 347 7 351 357 8 1 314 353 344 275 319 238 264 281 186 256 301 304 319 304 308 330 231 213 296 202 63 10 333 323 319 308 302 296
330 344 60 113 283 299 103 58 38 88 343 318 338 358 333 329 329 5 331 12 30 356 358 329 327 316 308 333 332 348 346 337 1 13 231 343 247 68 354 349 328 314 303 290 280
330 17 12 93 301 168 75 48 60 233 258 349 351 322 14 357 343 336 353 352 27 349 325 13 332 13 321 3 314 334 346 343 312 326 321 309 353 128 5 330 336 334 297 271 301
349 355 49 337 325 90 71 51 196 195 267 332 331 36 326 350 345 359 4 331 15 358 7 342 288 306 308 341 22 338 342 303 253 236 248 346 2 236 345 347 347 340 33 59 47
52 2 286 323 98 64 70 169 172 205 359 59 79 113 329 314 354 8 338 329 339 351 358 282 300 329 341 17 52 341 344 0 348 348 341 66 52 341 343 341 333 340 32 52 61
50 34 261 346 64 47 107 211 225 212 145 108 188 297 246 295 301 311 285 293 1 323 317 277 136 303 5 14 9 5 12 343 276 305 344 343 49 355 340 338 328 337 22 35 43
91 21 317 74 47 18 114 182 195 183 127 114 147 190 199 318 292 286 291 223 10 341 333 318 216 291 243 206 53 33 6 339 76 343 349 317 71 10 354 335 341 350 11 29 36
115 244 327 85 101 1 299 263 237 152 157 175 201 175 111 215 5 243 290 283 8 357 348 336 0 338 348 346 29 16 14 16 107 25 16 23 318 353 353 347 357 359 5 20 36
91 22 334 49 299 115 146 307 321 227 160 194 182 87 67 350 259 290 292 300 340 351 4 78 0 54 6 303 321 7 19 24 37 58 321 45 323 349 353 356 350 354 1 16 31
30 229 185 288 356 95 103 152 255 35 193 178 112 199 151 308 339 273 274 296 312 354 0 62 33 24 257 233 331 29 21 24 38 13 46 329 16 355 359 348 347 349 2 18 31
135 138 313 142 203 144 248 217 199 258 160 232 149 223 173 193 179 253 335 356 346 329 359 8 319 55 298 328 226 38 29 29 39 13 16 343 30 354 2 1 8 359 7 20 29
176 39 109 270 114 102 214 171 195 171 165 158 165 140 170 237 211 231 246 285 268 314 323 359 340 24 322 340 73 16 17 21 44 38 302 21 315 331 11 13 9 4 10 18 24